www.pogodaiklimat.ru

Погода и климат >> Архив погоды >> Великобритания >> Глазго


АРХИВ ПОГОДЫ в Глазго

Время (UTC), дата Ветер
(напр.,м/с)
 
Видим.   Явления Облачность Т
(С)
Тd
(С)
f
(%)
Тe
(С)
Тes
(С)
Комфортность P
(гПа)
Po
(гПа)
Тmin
(С)
Tmax
(С)
R
(мм)
R24
(мм)
S
(см)
19 16.09 З 4 н/о н/о +11.1 +7.6 79 +9 +9 тепло 1022.8 1015.6
20 16.09 З 5 н/о н/о +10.8 +7.0 77 +8 +8 по сезону 1022.8 1015.6
21 16.09 З 4 н/о н/о +9.7 +7.1 84 +7 +7 прохладно 1023.3 1016.1
22 16.09 ЮЗ 3 н/о н/о +10.2 +7.3 82 +8 +8 тепло 1023.1 1015.9
23 16.09 СЗ 5 н/о н/о +11.3 +7.7 78 +9 +9 тепло 1023.1 1015.9
00 17.09 СЗ 6 н/о н/о +11.1 +7.1 76 +8 +8 по сезону 1023.0 1015.8
01 17.09 З 3 н/о н/о +9.7 +8.1 90 +7 +7 тепло 1023.3 1016.0
02 17.09 З 6 н/о н/о +9.7 +6.6 81 +6 +6 по сезону 1023.3 1016.1
03 17.09 СЗ 4 н/о н/о +9.4 +6.1 80 +7 +7 по сезону 1023.8 1016.5
04 17.09 С 2 н/о н/о +8.8 +5.6 80 +8 +8 тепло 1023.9 1016.6
05 17.09 ЮЗ 3 н/о н/о +8.4 +5.9 84 +6 +6 по сезону 1024.1 1016.8
06 17.09 СЗ 6 н/о н/о +9.1 +6.1 81 +5 +5 прохладно 1024.4 1017.1 +7.4
07 17.09 ЮЗ 3 н/о н/о +8.9 +6.6 85 +7 +7 по сезону 1025.2 1017.9
08 17.09 СЗ 2 н/о н/о +10.6 +7.5 81 +9 +9 по сезону 1025.7 1018.4
09 17.09 СЗ 4 н/о н/о +12.3 +7.5 72 +10 +10 по сезону 1026.0 1018.8
10 17.09 СЗ 7 н/о н/о +11.5 +3.7 59 +9 +9 по сезону 1026.6 1019.4
11 17.09 СЗ 6 н/о н/о +13.2 +4.5 56 +11 +11 по сезону 1026.7 1019.5
12 17.09 СЗ 6 н/о н/о +14.3 +5.7 56 +13 +13 по сезону 1027.0 1019.8 0.4
13 17.09 СЗ 6 15 км н/о +14.9 +5.3 53 +13 +13 тепло 1027.1 1019.9
14 17.09 СЗ 5 40 км н/о +14.4 +5.3 54 +13 +13 по сезону 1027.2 1020.0
15 17.09 СЗ 4 35 км н/о +14.5 +5.9 56 +13 +13 по сезону 1027.2 1020.0
16 17.09 СЗ 4 35 км н/о +13.6 +5.1 56 +12 +12 тепло 1027.0 1019.9
17 17.09 СЗ 3 35 км н/о +13.1 +4.9 57 +12 +12 по сезону 1027.1 1019.9
18 17.09 С 2 35 км н/о +12.5 +6.0 65 +12 +12 по сезону 1027.4 1020.2 +15.4 0.4
19 17.09 З 2 35 км н/о +10.6 +5.4 70 +9 +9 тепло 1027.6 1020.3
20 17.09 СЗ 3 30 км н/о +9.0 +5.2 77 +7 +7 по сезону 1028.4 1021.1
21 17.09 СЗ 4 30 км н/о +10.2 +6.7 79 +8 +8 по сезону 1028.5 1021.2
22 17.09 СЗ 3 30 км н/о +10.0 +7.1 82 +8 +8 тепло 1028.8 1021.6
23 17.09 СЗ 3 30 км н/о +10.5 +6.6 77 +8 +8 по сезону 1028.7 1021.4
00 18.09 З 2 30 км н/о +10.1 +6.4 78 +9 +9 по сезону 1028.6 1021.3
01 18.09 З 1 30 км н/о +10.0 +6.8 80 +10 +10 тепло 1028.8 1021.5
02 18.09 З 1 35 км н/о +9.7 +6.8 82 +10 +10 тепло 1028.7 1021.4
03 18.09 З 1 35 км н/о +9.7 +6.7 82 +9 +9 по сезону 1028.4 1021.1
04 18.09 З 1 35 км н/о +9.0 +6.8 86 +9 +9 тепло 1028.4 1021.1
05 18.09 ЮЗ 1 35 км н/о +8.4 +6.7 89 +9 +9 тепло 1028.4 1021.1
06 18.09 Ю 1 35 км н/о +9.0 +7.0 87 +9 +9 по сезону 1028.5 1021.2 +8.4
07 18.09 Ю 1 30 км в посл. час дождь н/о +9.4 +7.7 89 +10 +10 тепло 1028.9 1021.6
08 18.09 ЮЗ 2 30 км н/о +10.4 +7.9 84 +9 +9 по сезону 1029.0 1021.7
09 18.09 ЮВ 2 30 км н/о +11.9 +9.6 86 +11 +11 по сезону 1029.1 1021.9
10 18.09 З 3 25 км н/о +14.6 +11.0 79 +14 +14 тепло 1028.9 1021.7
11 18.09 З 3 30 км н/о +14.6 +10.7 77 +14 +14 тепло 1029.2 1022.0
12 18.09 З 4 35 км н/о +15.8 +11.7 77 +15 +15 тепло 1029.2 1022.0 0.0
13 18.09 З 5 40 км н/о +15.6 +11.4 76 +15 +15 тепло 1029.2 1022.0
14 18.09 З 4 15 км н/о +17.8 +13.1 74 +18 +18 тепло 1028.9 1021.8
15 18.09 З 4 50 км н/о +16.6 +12.0 74 +16 +16 тепло 1029.1 1022.0
16 18.09 З 4 60 км н/о +16.4 +12.2 76 +16 +16 тепло 1028.9 1021.8
17 18.09 З 3 55 км н/о +15.4 +12.0 80 +15 +15 тепло 1029.2 1022.0
18 18.09 СЗ 2 55 км н/о +14.1 +11.7 85 +14 +14 тепло 1029.4 1022.2 +18.0 0.0
19 18.09 З 1 65 км н/о +13.5 +11.6 88 +14 +14 тепло 1029.8 1022.6
20 18.09 З 3 >70 км н/о +13.2 +11.4 89 +12 +12 тепло 1030.1 1022.9
21 18.09 З 2 >70 км н/о +12.2 +10.7 91 +11 +11 по сезону 1030.3 1023.1
22 18.09 СЗ 3 65 км н/о +11.1 +10.3 95 +9 +9 тепло 1030.4 1023.2
23 18.09 ЮЗ 1 50 км н/о +10.3 +9.8 97 +10 +10 тепло 1030.5 1023.2
00 19.09 З 2 >70 км н/о +9.8 +9.4 97 +8 +8 по сезону 1030.5 1023.2
01 19.09 ЮЗ 1 >70 км н/о +10.1 +9.8 98 +9 +9 тепло 1030.6 1023.3
02 19.09 З 2 70 км н/о +9.8 +9.6 99 +8 +8 по сезону 1030.2 1022.9
03 19.09 ЮЗ 2 55 км н/о +8.9 +8.6 98 +7 +7 по сезону 1030.2 1022.9
04 19.09 ЮЗ 1 900 м дымка н/о +10.4 +10.3 99 +10 +10 тепло 1030.1 1022.8
05 19.09 ЮЗ 2 55 км в посл. час туман н/о +10.6 +10.5 99 +9 +9 тепло 1030.1 1022.8
06 19.09 З 1 40 км н/о +10.7 +10.6 99 +10 +10 по сезону 1030.3 1023.1 +8.6
07 19.09 З 2 23 км н/о +11.6 +11.4 99 +10 +10 тепло 1030.4 1023.1
08 19.09 З 1 40 км н/о +12.2 +11.8 97 +12 +12 тепло 1030.7 1023.4
09 19.09 СЗ 2 40 км н/о +12.8 +11.5 92 +12 +12 по сезону 1030.9 1023.7
10 19.09 З 4 40 км н/о +13.8 +10.8 82 +12 +12 по сезону 1030.9 1023.7
11 19.09 З 4 50 км н/о +15.8 +10.9 73 +15 +15 тепло 1030.6 1023.4
12 19.09 СЗ 4 40 км н/о +16.8 +12.0 73 +16 +16 тепло 1030.4 1023.2
13 19.09 З 3 35 км н/о +17.6 +11.7 68 +18 +18 тепло 1030.1 1022.9
14 19.09 З 3 40 км н/о +18.4 +12.2 67 +19 +19 тепло 1029.8 1022.8
15 19.09 З 3 40 км н/о +18.4 +12.4 68 +19 +19 тепло 1029.6 1022.6
16 19.09 СЗ 4 40 км н/о +17.8 +11.7 67 +18 +18 тепло 1029.1 1022.0
17 19.09 З 3 30 км н/о +17.2 +11.8 71 +17 +17 тепло 1028.9 1021.8
18 19.09 ЮЗ 2 22 км н/о +15.4 +11.6 78 +15 +15 тепло 1028.7 1021.5 +18.6
19 19.09 З 2 26 км н/о +12.8 +10.8 88 +12 +12 тепло 1028.9 1021.6
20 19.09 З 3 27 км н/о +11.4 +10.1 92 +9 +9 по сезону 1029.1 1021.8
21 19.09 ЮЗ 1 10 км н/о +9.6 +8.5 93 +9 +9 по сезону 1029.3 1022.0
22 19.09 СЗ 1 25 км н/о +8.9 +8.1 95 +8 +8 тепло 1029.3 1022.0
23 19.09 С 1 10 км н/о +8.7 +8.3 97 +8 +8 по сезону 1028.9 1021.6
00 20.09 СЗ 1 3700 м в посл. час туман н/о +8.6 +8.4 99 +9 +9 по сезону 1028.5 1021.2
01 20.09 С 2 1600 м осадки н/о +8.1 +7.9 99 +6 +6 тепло 1028.3 1021.0
02 20.09 СВ 1 100 м туман н/о +8.4 +8.3 99 +7 +7 по сезону 1028.1 1020.7
03 20.09 ЮВ 1 100 м туман н/о +7.7 +7.6 99 +8 +8 по сезону 1027.6 1020.3
04 20.09 ЮВ 1 100 м туман н/о +7.2 +7.0 99 +6 +6 тепло 1027.1 1019.8
05 20.09 Ю 1 100 м туман н/о +6.8 +6.7 99 +6 +6 по сезону 1026.7 1019.4
06 20.09 ЮЗ 1 <100 м туман н/о +7.6 +7.6 100 +6 +6 по сезону 1026.6 1019.2 +6.7 0.0
07 20.09 ЮЗ 1 100 м туман н/о +7.8 +7.7 99 +7 +7 по сезону 1026.5 1019.2
08 20.09 ЮВ 2 100 м туман н/о +8.2 +8.2 100 +6 +6 по сезону 1026.5 1019.2
09 20.09 Ю 2 <100 м туман н/о +8.8 +8.8 100 +7 +7 прохладно 1026.4 1019.1
10 20.09 ЮВ 1 100 м туман н/о +10.4 +10.4 100 +10 +10 по сезону 1026.0 1018.7
11 20.09 Ю 2 8000 м в посл. час осадки н/о +11.9 +11.9 100 +11 +11 по сезону 1025.4 1018.2
12 20.09 ЮВ 1 20 км н/о +17.1 +14.2 83 +18 +18 тепло 1024.8 1017.7 0.2
13 20.09 ЮВ 2 15 км н/о +20.1 +13.2 64 +23 +23 комфорт 1023.6 1016.6
14 20.09 ЮВ 3 35 км н/о +21.3 +13.0 59 +24 +24 комфорт 1022.6 1015.6
15 20.09 Ю 3 45 км н/о +22.4 +14.2 60 +26 +26 жарко 1021.3 1014.4
16 20.09 Ю 2 40 км дымка н/о +22.5 +13.2 56 +25 +25 комфорт 1020.6 1013.6
17 20.09 ЮВ 4 45 км н/о +20.5 +11.9 58 +23 +23 комфорт 1019.9 1012.9
18 20.09 ЮВ 4 50 км н/о +18.2 +10.9 62 +18 +18 тепло 1019.6 1012.5 +22.8 0.2
19 20.09 В 4 40 км н/о +16.5 +11.3 71 +16 +16 тепло 1019.2 1012.2
20 20.09 ЮВ 2 45 км н/о +15.4 +9.5 68 +15 +15 тепло 1018.7 1011.6
21 20.09 Ю 2 40 км н/о +14.0 +9.4 74 +14 +14 тепло 1018.3 1011.2
22 20.09 ЮЗ 3 19 км н/о +14.1 +10.4 78 +13 +13 тепло 1017.8 1010.7
23 20.09 ЮЗ 2 8000 м н/о +12.5 +9.7 83 +12 +12 тепло 1017.6 1010.4
00 21.09 Ю 2 25 км н/о +12.5 +10.8 89 +11 +11 тепло 1017.1 1010.0
01 21.09 ЮВ 2 18 км н/о +12.3 +11.0 92 +11 +11 тепло 1016.7 1009.6
02 21.09 ЮЗ 1 16 км н/о +10.7 +9.9 95 +10 +10 тепло 1016.1 1008.9
03 21.09 Ю 2 16 км н/о +10.8 +10.0 95 +10 +10 по сезону 1015.5 1008.4
04 21.09 В 3 27 км н/о +11.1 +9.9 92 +9 +9 тепло 1014.9 1007.7
05 21.09 В 2 24 км н/о +10.7 +9.0 89 +10 +10 тепло 1014.2 1007.1
06 21.09 Ю 1 16 км н/о +9.2 +7.6 90 +8 +8 по сезону 1014.1 1006.9 +9.2
07 21.09 ЮВ 5 30 км н/о +11.7 +9.7 88 +9 +9 тепло 1013.7 1006.5
08 21.09 ЮВ 4 35 км н/о +13.9 +10.2 78 +12 +12 тепло 1013.4 1006.3
09 21.09 В 5 30 км н/о +15.7 +9.6 67 +15 +15 тепло 1012.9 1005.9
10 21.09 В 6 40 км н/о +17.3 +9.1 59 +16 +16 тепло 1012.1 1005.1
11 21.09 В 6 35 км н/о +18.5 +9.7 57 +18 +18 тепло 1011.3 1004.3
12 21.09 В 5 35 км н/о +20.3 +11.2 56 +22 +22 комфорт 1010.5 1003.6
13 21.09 В 5 15 км н/о +21.0 +11.0 53 +23 +23 комфорт 1009.6 1002.7
14 21.09 В 6 35 км н/о +21.7 +11.7 53 +24 +24 комфорт 1008.7 1001.8
15 21.09 В 5 35 км н/о +21.2 +12.5 58 +23 +23 комфорт 1008.3 1001.4
16 21.09 В 5 30 км н/о +20.2 +12.3 60 +22 +22 комфорт 1007.5 1000.7
17 21.09 В 6 35 км н/о +20.3 +11.4 57 +22 +22 комфорт 1007.0 1000.1
18 21.09 В 5 35 км н/о +18.4 +11.5 64 +19 +19 тепло 1007.1 1000.2 +22.3
19 21.09 В 5 30 км н/о +17.7 +11.6 67 +17 +17 тепло 1007.2 1000.2
20 21.09 В 3 30 км н/о +16.5 +11.7 73 +16 +16 тепло 1007.1 1000.1
21 21.09 Ю 2 25 км н/о +15.0 +11.5 80 +15 +15 тепло 1007.2 1000.2
22 21.09 Ю 2 21 км н/о +13.4 +11.5 88 +13 +13 тепло 1006.9 999.9
23 21.09 З 3 16 км н/о +12.1 +10.9 92 +11 +11 тепло 1006.6 999.5
00 22.09 З 3 14 км н/о +11.2 +10.1 93 +9 +9 по сезону 1006.2 999.1
01 22.09 З 1 17 км н/о +11.4 +10.8 96 +11 +11 тепло 1006.0 998.9
02 22.09 З 2 16 км н/о +11.1 +10.2 94 +10 +10 тепло 1005.4 998.3
03 22.09 З 1 7000 м дымка н/о +10.6 +9.8 95 +11 +11 тепло 1004.8 997.7
04 22.09 З 1 6000 м дымка н/о +10.4 +9.8 96 +11 +11 тепло 1004.3 997.2
05 22.09 З 1 4200 м слаб. ливневой дождь н/о +11.0 +10.6 97 +11 +11 тепло 1003.8 996.7
06 22.09 З 1 4700 м в посл. час дождь н/о +11.0 +10.6 97 +11 +11 тепло 1003.4 996.3 +10.2 0.0
07 22.09 ЮЗ 1 13 км н/о +11.5 +11.2 98 +12 +12 тепло 1003.2 996.2
08 22.09 В 2 14 км в посл. час дождь н/о +12.5 +12.0 97 +12 +12 тепло 1002.9 995.9
09 22.09 ЮВ 3 600 м сильн. дождь н/о +12.5 +11.6 94 +11 +11 по сезону 1003.5 996.5
10 22.09 В 3 2400 м дождь н/о +12.4 +11.9 97 +11 +11 по сезону 1003.1 996.0
11 22.09 В 2 5000 м слаб. дождь н/о +14.1 +13.7 97 +14 +14 тепло 1002.4 995.4
12 22.09 Ю 2 5000 м в посл. час дождь н/о +14.3 +13.7 96 +14 +14 по сезону 1001.9 995.0 12
13 22.09 ЮВ 4 2700 м слаб. дождь н/о +14.4 +14.0 97 +13 +13 тепло 1001.7 994.7
14 22.09 ЮВ 4 17 км в посл. час дождь н/о +16.8 +15.6 93 +16 +16 тепло 1001.1 994.2
15 22.09 В 6 22 км н/о +17.8 +14.8 83 +17 +17 тепло 1000.6 993.7
16 22.09 ЮВ 5 17 км н/о +17.1 +14.6 85 +16 +16 тепло 1000.4 993.5
17 22.09 ЮВ 3 7000 м в посл. час дождь н/о +15.8 +14.2 90 +15 +15 тепло 1000.6 993.6
18 22.09 ЮВ 4 9000 м дымка н/о +15.6 +14.3 92 +15 +15 тепло 1000.8 993.8 +18.5 12
19 22.09 ЮВ 3 1500 м ливневой дождь н/о +15.0 +14.4 96 +14 +14 тепло 1001.3 994.3
20 22.09 В 2 1300 м слаб. дождь н/о +14.7 +14.3 97 +14 +14 тепло 1001.7 994.7
21 22.09 ЮВ 2 1600 м в посл. час дождь н/о +14.6 +14.3 98 +14 +14 тепло 1001.9 994.9
22 22.09 ЮВ 2 1500 м слаб. ливневой дождь н/о +14.5 +14.2 98 +14 +14 тепло 1002.3 995.3
23 22.09 Ю 2 1000 м в посл. час дождь н/о +14.3 +14.1 99 +14 +14 тепло 1002.5 995.5
00 23.09 ЮВ 1 1500 м туман н/о +14.2 +14.0 99 +15 +15 тепло 1002.5 995.5 3
01 23.09 В 2 1500 м в посл. час туман н/о +14.0 +13.8 99 +14 +14 тепло 1002.6 995.6
02 23.09 В 2 1900 м дымка н/о +13.9 +13.7 99 +14 +14 тепло 1002.7 995.7
03 23.09 ЮВ 1 1600 м слаб. дождь н/о +13.9 +13.7 99 +14 +14 тепло 1002.6 995.6
04 23.09 ЮВ 1 1400 м в посл. час дождь н/о +13.8 +13.6 99 +14 +14 тепло 1002.5 995.5
05 23.09 Ю 2 1700 м в посл. час дождь н/о +13.4 +13.2 99 +13 +13 тепло 1002.5 995.5
06 23.09 ЮВ 3 600 м туман н/о +12.8 +12.6 99 +11 +11 тепло 1002.8 995.8 +12.8 3
07 23.09 ЮВ 3 10 км в посл. час туман н/о +13.3 +13.2 99 +12 +12 тепло 1003.0 996.0
08 23.09 ЮВ 4 40 км н/о +13.7 +13.1 96 +12 +12 тепло 1003.4 996.4
09 23.09 ЮВ 4 50 км н/о +14.1 +12.7 91 +13 +13 тепло 1003.6 996.6
10 23.09 Ю 5 70 км н/о +14.5 +12.4 87 +13 +13 тепло 1003.9 996.9
11 23.09 Ю 6 65 км н/о +14.8 +12.1 84 +13 +13 по сезону 1003.9 996.9
12 23.09 ЮЗ 6 60 км н/о +14.6 +10.7 77 +13 +13 по сезону 1004.4 997.4 0.2
13 23.09 Ю 4 55 км н/о +15.6 +11.1 75 +15 +15 тепло 1004.2 997.2
14 23.09 Ю 5 15 км н/о +16.8 +10.9 68 +16 +16 тепло 1004.0 997.1
15 23.09 Ю 5 >70 км н/о +16.8 +9.3 61 +16 +16 тепло 1003.7 996.8
16 23.09 Ю 4 60 км н/о +17.3 +10.2 63 +17 +17 тепло 1003.2 996.3
17 23.09 Ю 4 55 км н/о +15.4 +10.5 73 +14 +14 тепло 1003.0 996.0
18 23.09 Ю 4 55 км н/о +14.0 +9.7 75 +13 +13 по сезону 1002.8 995.8 +17.6 0.2
19 23.09 ЮВ 4 55 км н/о +13.5 +9.7 78 +12 +12 тепло 1002.4 995.4

 

Местоположение метеостанции Глазго (Великобритания): широта 55.90 долгота -4.53 высота над уровнем моря 59 м.

В архиве по умолчанию представлена погода в Глазго за последнюю неделю. Архивные данные за месяц целиком и за предыдущие месяцы, начиная с января 2011 года, Вы можете получить, выбрав интересующий диапазон дат из раскрывающегося списка и нажав кнопку "Ввод!".


*Определитесь, кто Вы:
робот инопланетянин человек

Внимание! Время в таблицах - всемирное. Для получения местного времени необходимо прибавить поправку, которая равна 0 ч.

Смотрите также архив погоды в соседних городах и на ближайших метеорологических станциях:

Погода в Прествике (Великобритания) (42 км)
Погода в Друмалбине (Великобритания) (59 км)
Погода в Гленогле (Великобритания) (59 км)
Погода в Страталлане (Великобритания) (68 км)
Погода в Эдинбурге (Великобритания) (74 км)
Погода в Макрайханише (Великобритания) (90 км)
Погода в Эскдейлмьюире (Великобритания) (106 км)
Погода на Горе Аонах Мор (Великобритания) (106 км)
Погода на Станции Tulloch Bridge (Великобритания) (108 км)
Погода в Порт-Эллене (Великобритания) (110 км)

Пояснения к столбцам:

Ветер - указаны скорость ветра в м/с - средняя за 10 мин, порывы в срок и между сроками (в фигурных скобках) и направление, откуда дует ветер: С - северный, СВ - северо-восточный, В - восточный, ЮВ - юго-восточный, Ю - южный, ЮЗ - юго-западный, З - западный, СЗ - северо-западный.
Видимость - горизонтальная дальность видимости в метрах или километрах. При видимости от 1 до 10 км при отсутствии осадков обычно наблюдается дымка, при ухудшении видимости до 1 км и менее - туман. В сухую погоду видимость может ухудшаться дымом, пылью или мглою.
Явления - указаны атмосферные явления, наблюдавшиеся в срок или в последний час перед сроком; фигурными скобками обозначены явления, наблюдавшиеся между сроками (за 1-3 часа до срока); квадратными скобками обозначены град или гололедные отложения с указанием их диаметра в мм.
Облачность - указаны через наклонную черту общая и нижняя облачность в баллах и высота нижней границы облаков в метрах; квадратными скобками обозначены формы облаков: Ci - перистые, Cs - перисто-слоистые, Cc - перисто-кучевые, Ac - высококучевые, As - высокослоистые, Sc - слоисто-кучевые, Ns - слоисто-дождевые, Cu - кучевые, Cb - кучево-дождевые. Подробнее классификацию облаков см. в Атласе облаков (PDF).
T - Температура воздуха - температура, измеренная на высоте 2 м над землей.
Td - Температура точки росы - температура, при понижении до которой содержащийся в воздухе водяной пар достигнет насыщения.
f - Относительная влажность воздуха - влажноcть воздуха, измеренная на высоте 2 м над землей.
Te - Эффективная температура - температура, которую ощущает одетый по сезону человек в тени. Характеристика душности погоды. При расчете учитывается влияние влажности воздуха и скорости ветра на теплоощущения человека.
Tes - Эффективная температура на солнце - температура, которую ощущает человек, с поправкой на солнечный нагрев. Характеристика знойности погоды. Зависит от высоты солнца над горизонтом, облачности и скорости ветра. Ночью, в пасмурную погоду, а также при ветре 12 м/с и более поправка равна нулю.
P - Атмосферное давление - приведенное к уровню моря атмосферное давление.
Po - Атмосферное давление - измеренное на уровне метеостанции атмосферное давление.
Tmin - Минимальная температура - минимум температуры воздуха на высоте 2 м над землей.
Tmax - Максимальная температура - максимум температуры воздуха на высоте 2 м над землей.
R - Количество осадков - Количество выпавших осадков за период времени, мм. При наведении курсора мыши на число - период времени, за который выпало указанное количество осадков.
R24 - Количество осадков - Количество выпавших осадков за 24 часа, мм.
S - Снежный покров - Высота снежного покрова, см. При наведении курсора мыши на число - состояние снежного покрова и степень покрытия местности в баллах.